,,,PA_Meas_PMT16A,,PR_Meas_QMR101_102,,RH_Meas_QMH101,,SR_Meas_QMS101,,TA_Meas_QMH101,,GenWind,,GenWind,
date,time,status,PA,status,PR,status,RH,status,SR,status,TA,status,DirAvg,status,SpdAvg,
2009-02-28, 00:00:04,VALID,1002.89,VALID,0,VALID,85.0696,VALID,0,VALID,25.3,VALID,342,VALID,0.283984,
2009-02-28, 00:01:04,VALID,1002.88,VALID,0,VALID,85.0696,VALID,0,VALID,25.2981,VALID,342,VALID,0.0292969,
2009-02-28, 00:02:04,VALID,1002.89,VALID,0,VALID,85.4435,VALID,0,VALID,25.3176,VALID,342,VALID,0.00273437,
2009-02-28, 00:03:04,VALID,1002.88,VALID,0,VALID,85.1459,VALID,0,VALID,25.3604,VALID,342,VALID,0.325391,
2009-02-28, 00:04:04,VALID,1002.91,VALID,0,VALID,85.3824,VALID,0,VALID,25.3195,VALID,342,VALID,0.371094,
2009-02-28, 00:05:04,VALID,1002.87,VALID,0,VALID,85.9622,VALID,0,VALID,25.339,VALID,342,VALID,0,
2009-02-28, 00:06:04,VALID,1002.88,VALID,0,VALID,86.1911,VALID,0,VALID,25.2786,VALID,342,VALID,0,
2009-02-28, 00:07:04,VALID,1002.9,VALID,0,VALID,86.7404,VALID,0,VALID,25.2806,VALID,342,VALID,0,
2009-02-28, 00:08:04,VALID,1002.86,VALID,0,VALID,86.8929,VALID,0,VALID,25.2397,VALID,342,VALID,0,
2009-02-28, 00:09:04,VALID,1002.89,VALID,0,VALID,87.2896,VALID,0,VALID,25.2202,VALID,342,VALID,0,
2009-02-28, 00:10:04,VALID,1002.85,VALID,0,VALID,87.4727,VALID,0,VALID,25.2027,VALID,342,VALID,0,
2009-02-28, 00:11:04,VALID,1002.8,VALID,0,VALID,87.7779,VALID,0,VALID,25.1618,VALID,342,VALID,0,
2009-02-28, 00:12:04,VALID,1002.79,VALID,0,VALID,88.3043,VALID,0,VALID,25.1423,VALID,342,VALID,0,
2009-02-28, 00:13:04,VALID,1002.75,VALID,0,VALID,88.4645,VALID,0,VALID,25.1248,VALID,342,VALID,0,
2009-02-28, 00:14:04,VALID,1002.76,VALID,0,VALID,87.7855,VALID,0,VALID,25.0858,VALID,342,VALID,0,
2009-02-28, 00:15:04,VALID,1002.75,VALID,0,VALID,86.9387,VALID,0.100563,VALID,25.045,VALID,342,VALID,0.35625,
2009-02-28, 00:16:04,VALID,1002.73,VALID,0,VALID,86.42,VALID,0,VALID,25.0839,VALID,337,VALID,0.327344,
2009-02-28, 00:17:04,VALID,1002.75,VALID,0,VALID,85.8096,VALID,0,VALID,25.1423,VALID,357,VALID,0.703125,
2009-02-28, 00:18:04,VALID,1002.7,VALID,0,VALID,85.4435,VALID,0,VALID,25.2007,VALID,352,VALID,0.462109,
2009-02-28, 00:19:04,VALID,1002.7,VALID,0,VALID,85.0239,VALID,0,VALID,25.2592,VALID,347,VALID,0.435937,
2009-02-28, 00:20:04,VALID,1002.67,VALID,0,VALID,84.3602,VALID,0,VALID,25.3176,VALID,344,VALID,0.615625,
2009-02-28, 00:21:04,VALID,1002.65,VALID,0,VALID,84.0626,VALID,0,VALID,25.376,VALID,337,VALID,0.428125,
2009-02-28, 00:22:04,VALID,1002.65,VALID,0,VALID,83.8872,VALID,0.100563,VALID,25.4149,VALID,342,VALID,0.620703,
2009-02-28, 00:23:04,VALID,1002.66,VALID,0,VALID,83.7117,VALID,0.100563,VALID,25.4539,VALID,348,VALID,0.467969,
2009-02-28, 00:24:04,VALID,1002.64,VALID,0,VALID,83.582,VALID,0,VALID,25.5123,VALID,358,VALID,0.434375,
2009-02-28, 00:25:04,VALID,1002.63,VALID,0,VALID,83.5286,VALID,0,VALID,25.5532,VALID,358,VALID,0.308203,
2009-02-28, 00:26:04,VALID,1002.61,VALID,0,VALID,83.582,VALID,0,VALID,25.5532,VALID,338,VALID,0.401172,
2009-02-28, 00:27:04,VALID,1002.58,VALID,0,VALID,83.1929,VALID,0,VALID,25.5532,VALID,340,VALID,0.79375,
2009-02-28, 00:28:04,VALID,1002.55,VALID,0,VALID,82.9183,VALID,0,VALID,25.5513,VALID,350,VALID,0.625391,
2009-02-28, 00:29:04,VALID,1002.52,VALID,0,VALID,83.1395,VALID,0,VALID,25.5921,VALID,348,VALID,0.603516,
2009-02-28, 00:30:04,VALID,1002.5,VALID,0,VALID,82.5369,VALID,0,VALID,25.5727,VALID,358,VALID,0.603125,
2009-02-28, 00:31:04,VALID,1002.49,VALID,0,VALID,82.9107,VALID,0,VALID,25.5707,VALID,357,VALID,0.628906,
2009-02-28, 00:32:04,VALID,1002.48,VALID,0,VALID,82.9412,VALID,0,VALID,25.5921,VALID,353,VALID,0.419141,
2009-02-28, 00:33:04,VALID,1002.48,VALID,0,VALID,82.7428,VALID,0,VALID,25.5727,VALID,352,VALID,0.359766,
2009-02-28, 00:34:04,VALID,1002.51,VALID,0,VALID,83.643,VALID,0,VALID,25.5921,VALID,352,VALID,0.187109,
2009-02-28, 00:35:04,VALID,1002.48,VALID,0,VALID,83.4752,VALID,0,VALID,25.5707,VALID,352,VALID,0.258984,
2009-02-28, 00:36:04,VALID,1002.51,VALID,0,VALID,83.2921,VALID,0.100563,VALID,25.5318,VALID,352,VALID,0.345313,
2009-02-28, 00:37:04,VALID,1002.46,VALID,0,VALID,83.8185,VALID,0,VALID,25.5123,VALID,352,VALID,0.353125,
2009-02-28, 00:38:04,VALID,1002.45,VALID,0,VALID,84.1237,VALID,0,VALID,25.5142,VALID,352,VALID,0.337109,
2009-02-28, 00:39:04,VALID,1002.42,VALID,0,VALID,84.6653,VALID,0,VALID,25.4539,VALID,352,VALID,0.426953,
2009-02-28, 00:40:04,VALID,1002.39,VALID,0,VALID,85.8707,VALID,0,VALID,25.4753,VALID,352,VALID,0.302344,
2009-02-28, 00:41:04,VALID,1002.38,VALID,0,VALID,86.3971,VALID,0,VALID,25.3974,VALID,352,VALID,0.348437,
2009-02-28, 00:42:04,VALID,1002.36,VALID,0,VALID,86.5496,VALID,0,VALID,25.2981,VALID,352,VALID,0.345703,
2009-02-28, 00:43:04,VALID,1002.36,VALID,0,VALID,87.0074,VALID,0,VALID,25.2416,VALID,352,VALID,0.0304688,
2009-02-28, 00:44:04,VALID,1002.38,VALID,0,VALID,87.2057,VALID,0,VALID,25.2027,VALID,352,VALID,0,
2009-02-28, 00:45:04,VALID,1002.38,VALID,0,VALID,87.3888,VALID,0,VALID,25.1442,VALID,352,VALID,0,
2009-02-28, 00:46:04,VALID,1002.35,VALID,0,VALID,87.1828,VALID,0,VALID,25.1053,VALID,352,VALID,0.0667969,
2009-02-28, 00:47:04,VALID,1002.36,VALID,0,VALID,87.3049,VALID,0,VALID,25.0858,VALID,352,VALID,0,
2009-02-28, 00:48:04,VALID,1002.34,VALID,0,VALID,87.0608,VALID,0,VALID,25.0469,VALID,352,VALID,0,
2009-02-28, 00:49:04,VALID,1002.3,VALID,0,VALID,87.0532,VALID,0,VALID,25.0469,VALID,352,VALID,0,
2009-02-28, 00:50:04,VALID,1002.3,VALID,0,VALID,86.9921,VALID,0,VALID,25.0469,VALID,352,VALID,0,
2009-02-28, 00:51:04,VALID,1002.28,VALID,0,VALID,87.549,VALID,0,VALID,25.0469,VALID,352,VALID,0.0175781,
2009-02-28, 00:52:04,VALID,1002.26,VALID,0,VALID,87.5338,VALID,0,VALID,25.0469,VALID,352,VALID,0.0382813,
2009-02-28, 00:53:04,VALID,1002.21,VALID,0,VALID,87.4193,VALID,0.100563,VALID,25.0469,VALID,352,VALID,0.275391,
2009-02-28, 00:54:04,VALID,1002.18,VALID,0,VALID,87.7626,VALID,0,VALID,25.0469,VALID,352,VALID,0.478906,
2009-02-28, 00:55:04,VALID,1002.17,VALID,0,VALID,88.0449,VALID,0,VALID,25.0079,VALID,352,VALID,0.280078,
2009-02-28, 00:56:04,VALID,1002.16,VALID,0,VALID,88.3501,VALID,0,VALID,25.0079,VALID,352,VALID,0.132422,
2009-02-28, 00:57:04,VALID,1002.16,VALID,0,VALID,88.6171,VALID,0,VALID,24.9885,VALID,352,VALID,0,
2009-02-28, 00:58:04,VALID,1002.13,VALID,0,VALID,88.7925,VALID,0,VALID,24.9514,VALID,352,VALID,0,
2009-02-28, 00:59:04,VALID,1002.13,VALID,0,VALID,88.7773,VALID,0,VALID,24.9087,VALID,352,VALID,0,
2009-02-28, 01:00:04,VALID,1002.13,VALID,0,VALID,88.5408,VALID,0,VALID,24.8716,VALID,352,VALID,0,
2009-02-28, 01:01:04,VALID,1002.1,VALID,0,VALID,88.8765,VALID,0,VALID,24.8911,VALID,352,VALID,0.285547,
2009-02-28, 01:02:04,VALID,1002.08,VALID,0,VALID,88.762,VALID,0,VALID,24.8327,VALID,352,VALID,0.314844,
2009-02-28, 01:03:04,VALID,1002.04,VALID,0,VALID,88.8231,VALID,0,VALID,24.8132,VALID,352,VALID,0.358594,
2009-02-28, 01:04:04,VALID,1002.05,VALID,0,VALID,88.8917,VALID,0,VALID,24.7743,VALID,352,VALID,0.117188,
2009-02-28, 01:05:04,VALID,1002.03,VALID,0,VALID,89.0367,VALID,0,VALID,24.7743,VALID,352,VALID,0,
2009-02-28, 01:06:04,VALID,1002.04,VALID,0,VALID,89.0519,VALID,0,VALID,24.7548,VALID,352,VALID,0,
2009-02-28, 01:07:04,VALID,1002.03,VALID,0,VALID,89.0595,VALID,0,VALID,24.7548,VALID,352,VALID,0,
2009-02-28, 01:08:04,VALID,1002,VALID,0,VALID,89.0367,VALID,0,VALID,24.7353,VALID,352,VALID,0.0867188,
2009-02-28, 01:09:04,VALID,1001.98,VALID,0,VALID,89.0672,VALID,0,VALID,24.7159,VALID,352,VALID,0.260156,
2009-02-28, 01:10:04,VALID,1001.94,VALID,0,VALID,89.296,VALID,0,VALID,24.7159,VALID,352,VALID,0.289453,
2009-02-28, 01:11:04,VALID,1001.96,VALID,0,VALID,89.3342,VALID,0,VALID,24.7159,VALID,352,VALID,0.208594,
2009-02-28, 01:12:04,VALID,1001.92,VALID,0,VALID,89.4105,VALID,0,VALID,24.7159,VALID,352,VALID,0.05,
2009-02-28, 01:13:04,VALID,1001.91,VALID,0,VALID,89.3723,VALID,0,VALID,24.6769,VALID,352,VALID,0.172656,
2009-02-28, 01:14:04,VALID,1001.89,VALID,0,VALID,89.4257,VALID,0,VALID,24.6964,VALID,21,VALID,0.172266,
2009-02-28, 01:15:04,VALID,1001.87,VALID,0,VALID,89.4334,VALID,0,VALID,24.6769,VALID,66,VALID,0.54375,
2009-02-28, 01:16:04,VALID,1001.88,VALID,0,VALID,89.5478,VALID,0,VALID,24.6964,VALID,66,VALID,0.235938,
2009-02-28, 01:17:04,VALID,1001.85,VALID,0,VALID,89.5707,VALID,0,VALID,24.6556,VALID,66,VALID,0.222656,
2009-02-28, 01:18:04,VALID,1001.82,VALID,0,VALID,89.6393,VALID,0,VALID,24.6574,VALID,66,VALID,0.345313,
2009-02-28, 01:19:04,VALID,1001.79,VALID,0,VALID,89.7309,VALID,0,VALID,24.6574,VALID,66,VALID,0.425391,
2009-02-28, 01:20:04,VALID,1001.78,VALID,0,VALID,89.7614,VALID,0,VALID,24.638,VALID,66,VALID,0.461719,
2009-02-28, 01:21:04,VALID,1001.76,VALID,0,VALID,89.8301,VALID,0,VALID,24.6185,VALID,66,VALID,0.455469,
2009-02-28, 01:22:04,VALID,1001.79,VALID,0,VALID,89.9064,VALID,0,VALID,24.599,VALID,66,VALID,0.294531,
2009-02-28, 01:23:04,VALID,1001.78,VALID,0,VALID,89.9369,VALID,0,VALID,24.5582,VALID,66,VALID,0.221094,
2009-02-28, 01:24:04,VALID,1001.77,VALID,0,VALID,89.9064,VALID,0,VALID,24.5193,VALID,66,VALID,0.313281,
2009-02-28, 01:25:04,VALID,1001.77,VALID,0,VALID,89.9826,VALID,0,VALID,24.5212,VALID,66,VALID,0.182031,
2009-02-28, 01:26:04,VALID,1001.77,VALID,0,VALID,89.9979,VALID,0,VALID,24.4998,VALID,66,VALID,0.353516,
2009-02-28, 01:27:04,VALID,1001.72,VALID,0,VALID,90.0055,VALID,0,VALID,24.4822,VALID,66,VALID,0.512891,
2009-02-28, 01:28:04,VALID,1001.72,VALID,0,VALID,89.9979,VALID,0,VALID,24.4609,VALID,66,VALID,0.552344,
2009-02-28, 01:29:04,VALID,1001.75,VALID,0,VALID,90.036,VALID,0,VALID,24.4822,VALID,68,VALID,0.476953,
2009-02-28, 01:30:04,VALID,1001.74,VALID,0,VALID,90.1581,VALID,0,VALID,24.4609,VALID,68,VALID,0.239063,
2009-02-28, 01:31:04,VALID,1001.73,VALID,0,VALID,90.3107,VALID,0,VALID,24.4628,VALID,68,VALID,0.0574219,
2009-02-28, 01:32:04,VALID,1001.74,VALID,0,VALID,90.4785,VALID,0,VALID,24.422,VALID,68,VALID,0.344922,
2009-02-28, 01:33:04,VALID,1001.73,VALID,0,VALID,90.6158,VALID,0,VALID,24.4238,VALID,68,VALID,0.278906,
2009-02-28, 01:34:04,VALID,1001.69,VALID,0,VALID,90.7837,VALID,0,VALID,24.4043,VALID,67,VALID,0,
2009-02-28, 01:35:04,VALID,1001.66,VALID,0,VALID,90.8447,VALID,0,VALID,24.4043,VALID,67,VALID,0,
2009-02-28, 01:36:04,VALID,1001.66,VALID,0,VALID,90.9668,VALID,0,VALID,24.3849,VALID,67,VALID,0,
2009-02-28, 01:37:04,VALID,1001.67,VALID,0,VALID,91.0583,VALID,0,VALID,24.4062,VALID,66,VALID,0,
2009-02-28, 01:38:04,VALID,1001.63,VALID,0,VALID,91.1651,VALID,0,VALID,24.3636,VALID,42,VALID,0,
2009-02-28, 01:39:04,VALID,1001.62,VALID,0,VALID,91.2185,VALID,0,VALID,24.3867,VALID,31,VALID,0,
2009-02-28, 01:40:04,VALID,1001.62,VALID,0,VALID,91.1728,VALID,0,VALID,24.307,VALID,14,VALID,0,
2009-02-28, 01:41:04,VALID,1001.58,VALID,0,VALID,91.3024,VALID,0.100563,VALID,24.2662,VALID,9,VALID,0,
2009-02-28, 01:42:04,VALID,1001.56,VALID,0,VALID,91.5313,VALID,0.100563,VALID,24.2662,VALID,9,VALID,0,
2009-02-28, 01:43:04,VALID,1001.56,VALID,0,VALID,91.6152,VALID,0,VALID,24.2486,VALID,7,VALID,0,
2009-02-28, 01:44:04,VALID,1001.57,VALID,0,VALID,91.7068,VALID,0,VALID,24.1884,VALID,6,VALID,0,
2009-02-28, 01:45:04,VALID,1001.56,VALID,0,VALID,91.8594,VALID,0,VALID,24.1884,VALID,6,VALID,0,
2009-02-28, 01:46:04,VALID,1001.54,VALID,0,VALID,91.8975,VALID,0,VALID,24.2097,VALID,6,VALID,0,
2009-02-28, 01:47:04,VALID,1001.53,VALID,0,VALID,91.9967,VALID,0,VALID,24.1689,VALID,6,VALID,0,
2009-02-28, 01:48:04,VALID,1001.51,VALID,0,VALID,92.0958,VALID,0,VALID,24.1513,VALID,7,VALID,0,
2009-02-28, 01:49:04,VALID,1001.47,VALID,0,VALID,92.2027,VALID,0,VALID,24.1494,VALID,6,VALID,0,
2009-02-28, 01:50:04,VALID,1001.48,VALID,0,VALID,92.2942,VALID,0,VALID,24.1707,VALID,7,VALID,0,
2009-02-28, 01:51:04,VALID,1001.48,VALID,0,VALID,92.3705,VALID,0.100563,VALID,24.1494,VALID,7,VALID,0,
2009-02-28, 01:52:04,VALID,1001.47,VALID,0,VALID,92.4391,VALID,0,VALID,24.1689,VALID,7,VALID,0,
2009-02-28, 01:53:04,VALID,1001.44,VALID,0,VALID,92.4544,VALID,0.100563,VALID,24.1689,VALID,7,VALID,0,
2009-02-28, 01:54:04,VALID,1001.43,VALID,0,VALID,92.5154,VALID,0.100563,VALID,24.1689,VALID,6,VALID,0,
2009-02-28, 01:55:04,VALID,1001.42,VALID,0,VALID,92.5993,VALID,0,VALID,24.2097,VALID,7,VALID,0,
2009-02-28, 01:56:04,VALID,1001.42,VALID,0,VALID,92.607,VALID,0.100563,VALID,24.2078,VALID,7,VALID,0,
2009-02-28, 01:57:04,VALID,1001.41,VALID,0,VALID,92.6299,VALID,0,VALID,24.2078,VALID,7,VALID,0,
2009-02-28, 01:58:04,VALID,1001.36,VALID,0,VALID,92.668,VALID,0,VALID,24.2078,VALID,7,VALID,0,
2009-02-28, 01:59:04,VALID,1001.32,VALID,0,VALID,92.6451,VALID,0,VALID,24.2291,VALID,7,VALID,0,
2009-02-28, 02:00:04,VALID,1001.32,VALID,0,VALID,92.6222,VALID,0.100563,VALID,24.2273,VALID,7,VALID,0,
2009-02-28, 02:01:04,VALID,1001.3,VALID,0,VALID,92.607,VALID,0.100563,VALID,24.2273,VALID,7,VALID,0,
2009-02-28, 02:02:04,VALID,1001.28,VALID,0,VALID,92.5993,VALID,0,VALID,24.2078,VALID,7,VALID,0,
2009-02-28, 02:03:04,VALID,1001.23,VALID,0,VALID,92.607,VALID,0.100563,VALID,24.2097,VALID,6,VALID,0,
2009-02-28, 02:04:04,VALID,1001.27,VALID,0,VALID,92.5917,VALID,0,VALID,24.2097,VALID,7,VALID,0,
2009-02-28, 02:05:04,VALID,1001.25,VALID,0,VALID,92.607,VALID,0,VALID,24.2097,VALID,7,VALID,0,
2009-02-28, 02:06:04,VALID,1001.26,VALID,0,VALID,92.6146,VALID,0,VALID,24.1689,VALID,7,VALID,0,
2009-02-28, 02:07:04,VALID,1001.23,VALID,0,VALID,92.6833,VALID,0,VALID,24.2097,VALID,6,VALID,0,
2009-02-28, 02:08:04,VALID,1001.23,VALID,0,VALID,92.668,VALID,0,VALID,24.2078,VALID,7,VALID,0,
2009-02-28, 02:09:04,VALID,1001.2,VALID,0,VALID,92.7138,VALID,0.100563,VALID,24.2468,VALID,5,VALID,0,
2009-02-28, 02:10:04,VALID,1001.19,VALID,0,VALID,92.6985,VALID,0.100563,VALID,24.2662,VALID,360,VALID,0.292969,
2009-02-28, 02:11:04,VALID,1001.17,VALID,0,VALID,92.6756,VALID,0,VALID,24.2857,VALID,359,VALID,0.441406,
2009-02-28, 02:12:04,VALID,1001.16,VALID,0,VALID,92.5612,VALID,0.100563,VALID,24.3246,VALID,359,VALID,0.428906,
2009-02-28, 02:13:04,VALID,1001.14,VALID,0,VALID,92.5078,VALID,0.100563,VALID,24.3441,VALID,359,VALID,0.30625,
2009-02-28, 02:14:04,VALID,1001.16,VALID,0,VALID,92.4849,VALID,0.100563,VALID,24.3636,VALID,359,VALID,0.422266,
2009-02-28, 02:15:04,VALID,1001.19,VALID,0,VALID,92.4544,VALID,0.100563,VALID,24.3636,VALID,359,VALID,0.364453,
2009-02-28, 02:16:04,VALID,1001.18,VALID,0,VALID,92.3857,VALID,0.100563,VALID,24.3636,VALID,359,VALID,0.348047,
2009-02-28, 02:17:04,VALID,1001.19,VALID,0,VALID,92.2637,VALID,0.100563,VALID,24.3636,VALID,359,VALID,0.544531,
2009-02-28, 02:18:04,VALID,1001.18,VALID,0,VALID,92.195,VALID,0.100563,VALID,24.3636,VALID,359,VALID,0.575391,
2009-02-28, 02:19:04,VALID,1001.16,VALID,0,VALID,92.1874,VALID,0.100563,VALID,24.3228,VALID,359,VALID,0.455469,
2009-02-28, 02:20:04,VALID,1001.14,VALID,0,VALID,92.195,VALID,0,VALID,24.3441,VALID,359,VALID,0.491016,
2009-02-28, 02:21:04,VALID,1001.16,VALID,0,VALID,92.2179,VALID,0.100563,VALID,24.3654,VALID,359,VALID,0.430859,
2009-02-28, 02:22:04,VALID,1001.09,VALID,0,VALID,92.2408,VALID,0.100563,VALID,24.3459,VALID,359,VALID,0.469531,
2009-02-28, 02:23:04,VALID,1001.08,VALID,0,VALID,92.2484,VALID,0.100563,VALID,24.3246,VALID,359,VALID,0.630078,
2009-02-28, 02:24:04,VALID,1001.05,VALID,0,VALID,92.2484,VALID,0.100563,VALID,24.2857,VALID,359,VALID,0.448438,
2009-02-28, 02:25:04,VALID,1001.08,VALID,0,VALID,92.3171,VALID,0.100563,VALID,24.3052,VALID,358,VALID,0.355469,
2009-02-28, 02:26:04,VALID,1001.01,VALID,0,VALID,92.3247,VALID,0,VALID,24.2857,VALID,358,VALID,0.310156,
2009-02-28, 02:27:04,VALID,1001.03,VALID,0,VALID,92.3629,VALID,0.100563,VALID,24.2857,VALID,358,VALID,0.419531,
2009-02-28, 02:28:04,VALID,1001.06,VALID,0,VALID,92.34,VALID,0.100563,VALID,24.2857,VALID,358,VALID,0.437109,
2009-02-28, 02:29:04,VALID,1001.08,VALID,0,VALID,92.3629,VALID,0.100563,VALID,24.2857,VALID,358,VALID,0.371094,
2009-02-28, 02:30:04,VALID,1001.03,VALID,0,VALID,92.3781,VALID,0.100563,VALID,24.2857,VALID,358,VALID,0.412109,
2009-02-28, 02:31:04,VALID,1001.03,VALID,0,VALID,92.3857,VALID,0,VALID,24.307,VALID,358,VALID,0.508984,
2009-02-28, 02:32:04,VALID,1001.02,VALID,0,VALID,92.3705,VALID,0.100563,VALID,24.2644,VALID,358,VALID,0.517969,
2009-02-28, 02:33:04,VALID,1001.04,VALID,0,VALID,92.34,VALID,0,VALID,24.2662,VALID,358,VALID,0.657031,
2009-02-28, 02:34:04,VALID,1001.04,VALID,0,VALID,92.3705,VALID,0.100563,VALID,24.2662,VALID,358,VALID,0.424219,
2009-02-28, 02:35:04,VALID,1001.05,VALID,0,VALID,92.3476,VALID,0.100563,VALID,24.2662,VALID,358,VALID,0.482031,
2009-02-28, 02:36:04,VALID,1001.06,VALID,0,VALID,92.3781,VALID,0.100563,VALID,24.2468,VALID,358,VALID,0.454297,
2009-02-28, 02:37:04,VALID,1001.07,VALID,0,VALID,92.3629,VALID,0.100563,VALID,24.2681,VALID,358,VALID,0.381641,
2009-02-28, 02:38:04,VALID,1001.09,VALID,0,VALID,92.4849,VALID,0.100563,VALID,24.2255,VALID,358,VALID,0.401563,
2009-02-28, 02:39:04,VALID,1001.09,VALID,0,VALID,92.5002,VALID,0.100563,VALID,24.2468,VALID,358,VALID,0.565234,
2009-02-28, 02:40:04,VALID,1001.12,VALID,0,VALID,92.5612,VALID,0.100563,VALID,24.2255,VALID,358,VALID,0.400781,
2009-02-28, 02:41:04,VALID,1001.13,VALID,0,VALID,92.5993,VALID,0,VALID,24.2486,VALID,358,VALID,0.366406,
2009-02-28, 02:42:04,VALID,1001.12,VALID,0,VALID,92.6528,VALID,0,VALID,24.2273,VALID,358,VALID,0.210547,
2009-02-28, 02:43:04,VALID,1001.14,VALID,0,VALID,92.6528,VALID,0,VALID,24.2273,VALID,358,VALID,0.25,
2009-02-28, 02:44:04,VALID,1001.13,VALID,0,VALID,92.7367,VALID,0,VALID,24.2486,VALID,358,VALID,0.210156,
2009-02-28, 02:45:04,VALID,1001.14,VALID,0,VALID,92.7062,VALID,0.100563,VALID,24.2273,VALID,356,VALID,0.378125,
2009-02-28, 02:46:04,VALID,1001.12,VALID,0,VALID,92.7596,VALID,0,VALID,24.2273,VALID,356,VALID,0.211328,
2009-02-28, 02:47:04,VALID,1001.1,VALID,0,VALID,92.7519,VALID,0.100563,VALID,24.2273,VALID,356,VALID,0.381641,
2009-02-28, 02:48:04,VALID,1001.09,VALID,0,VALID,92.813,VALID,0.100563,VALID,24.2681,VALID,356,VALID,0.374219,
2009-02-28, 02:49:04,VALID,1001.06,VALID,0,VALID,92.8282,VALID,0,VALID,24.2662,VALID,356,VALID,0.437109,
2009-02-28, 02:50:04,VALID,1001.07,VALID,0,VALID,92.813,VALID,0,VALID,24.2662,VALID,356,VALID,0.475781,
2009-02-28, 02:51:04,VALID,1001.03,VALID,0,VALID,92.7901,VALID,0.100563,VALID,24.2662,VALID,356,VALID,0.558594,
2009-02-28, 02:52:04,VALID,1001.05,VALID,0,VALID,92.7443,VALID,0.100563,VALID,24.2468,VALID,356,VALID,0.507031,
2009-02-28, 02:53:04,VALID,1001.06,VALID,0,VALID,92.7443,VALID,0,VALID,24.2681,VALID,1,VALID,0.573828,
2009-02-28, 02:54:04,VALID,1001.06,VALID,0,VALID,92.7214,VALID,0,VALID,24.2449,VALID,2,VALID,0.160938,
2009-02-28, 02:55:04,VALID,1001.04,VALID,0,VALID,92.6985,VALID,0,VALID,24.2662,VALID,2,VALID,0.00351562,
2009-02-28, 02:56:04,VALID,1001.06,VALID,0,VALID,92.6528,VALID,0,VALID,24.3052,VALID,2,VALID,0.248047,
2009-02-28, 02:57:04,VALID,1001.05,VALID,0,VALID,92.6146,VALID,0.100563,VALID,24.3052,VALID,2,VALID,0,
2009-02-28, 02:58:04,VALID,1001.06,VALID,0,VALID,92.5993,VALID,0,VALID,24.3654,VALID,2,VALID,0,
2009-02-28, 02:59:04,VALID,1001.08,VALID,0,VALID,92.4697,VALID,0,VALID,24.3441,VALID,2,VALID,0.129297,
2009-02-28, 03:00:04,VALID,1001.09,VALID,0,VALID,92.3323,VALID,0,VALID,24.3636,VALID,357,VALID,0.317187,
2009-02-28, 03:01:04,VALID,1001.11,VALID,0,VALID,92.0043,VALID,0.100563,VALID,24.3849,VALID,349,VALID,0.286328,
2009-02-28, 03:02:04,VALID,1001.13,VALID,0,VALID,91.6839,VALID,0.100563,VALID,24.3849,VALID,354,VALID,0.442578,
2009-02-28, 03:03:04,VALID,1001.14,VALID,0,VALID,91.4321,VALID,0.100563,VALID,24.4025,VALID,355,VALID,0.0316406,
2009-02-28, 03:04:04,VALID,1001.16,VALID,0,VALID,91.2414,VALID,0,VALID,24.4025,VALID,355,VALID,0.187891,
2009-02-28, 03:05:04,VALID,1001.17,VALID,0,VALID,91.0888,VALID,0,VALID,24.4628,VALID,351,VALID,0.308594,
2009-02-28, 03:06:04,VALID,1001.16,VALID,0,VALID,90.6616,VALID,0,VALID,24.4414,VALID,352,VALID,0.475,
2009-02-28, 03:07:04,VALID,1001.17,VALID,0,VALID,90.3717,VALID,0.100563,VALID,24.4414,VALID,347,VALID,0.480469,
2009-02-28, 03:08:04,VALID,1001.18,VALID,0,VALID,90.2191,VALID,0,VALID,24.5017,VALID,344,VALID,0.133594,
2009-02-28, 03:09:04,VALID,1001.16,VALID,0,VALID,89.9826,VALID,0,VALID,24.4822,VALID,342,VALID,0.483594,
2009-02-28, 03:10:04,VALID,1001.19,VALID,0,VALID,89.914,VALID,0,VALID,24.4804,VALID,344,VALID,0.0683594,
2009-02-28, 03:11:04,VALID,1001.16,VALID,0,VALID,89.7538,VALID,0,VALID,24.5193,VALID,344,VALID,0,
2009-02-28, 03:12:04,VALID,1001.16,VALID,0,VALID,89.647,VALID,0,VALID,24.5193,VALID,344,VALID,0,
2009-02-28, 03:13:04,VALID,1001.19,VALID,0,VALID,89.5783,VALID,0,VALID,24.5193,VALID,344,VALID,0,
2009-02-28, 03:14:04,VALID,1001.18,VALID,0,VALID,89.4181,VALID,0.100563,VALID,24.5388,VALID,344,VALID,0.114453,
2009-02-28, 03:15:04,VALID,1001.18,VALID,0,VALID,89.3266,VALID,0,VALID,24.5582,VALID,344,VALID,0,
2009-02-28, 03:16:04,VALID,1001.15,VALID,0,VALID,89.2579,VALID,0.100563,VALID,24.5777,VALID,344,VALID,0.131641,
2009-02-28, 03:17:04,VALID,1001.17,VALID,0,VALID,88.968,VALID,0,VALID,24.5777,VALID,344,VALID,0.339844,
2009-02-28, 03:18:04,VALID,1001.14,VALID,0,VALID,88.907,VALID,0,VALID,24.5972,VALID,344,VALID,0.00117188,
2009-02-28, 03:19:04,VALID,1001.16,VALID,0,VALID,88.6934,VALID,0,VALID,24.6166,VALID,344,VALID,0.415625,
2009-02-28, 03:20:04,VALID,1001.17,VALID,0,VALID,88.8154,VALID,0,VALID,24.6574,VALID,344,VALID,0.000390625,
2009-02-28, 03:21:04,VALID,1001.16,VALID,0,VALID,88.6171,VALID,0.100563,VALID,24.6361,VALID,344,VALID,0.175781,
2009-02-28, 03:22:04,VALID,1001.21,VALID,0,VALID,88.1975,VALID,0,VALID,24.6361,VALID,306,VALID,0.775,
2009-02-28, 03:23:04,VALID,1001.28,VALID,0,VALID,87.5719,VALID,0.100563,VALID,24.6945,VALID,296,VALID,0.753125,
2009-02-28, 03:24:04,VALID,1001.32,VALID,0,VALID,87.343,VALID,0,VALID,24.7724,VALID,299,VALID,0.547656,
2009-02-28, 03:25:04,VALID,1001.39,VALID,0,VALID,87.0989,VALID,0.100563,VALID,24.8911,VALID,287,VALID,0.418359,
2009-02-28, 03:26:04,VALID,1001.44,VALID,0,VALID,86.1911,VALID,0,VALID,24.9087,VALID,288,VALID,0.852344,
2009-02-28, 03:27:04,VALID,1001.39,VALID,0,VALID,85.4206,VALID,0,VALID,24.9885,VALID,282,VALID,1.64297,
2009-02-28, 03:28:04,VALID,1001.37,VALID,0,VALID,85.2909,VALID,0,VALID,24.9671,VALID,289,VALID,1.32383,
2009-02-28, 03:29:04,VALID,1001.4,VALID,0,VALID,85.7639,VALID,0.100563,VALID,24.9476,VALID,231,VALID,0.410937,
2009-02-28, 03:30:04,VALID,1001.4,VALID,0,VALID,85.7791,VALID,0.100563,VALID,24.9476,VALID,288,VALID,0.93125,
2009-02-28, 03:31:04,VALID,1001.37,VALID,0,VALID,86.0614,VALID,0,VALID,24.9282,VALID,244,VALID,1.36016,
2009-02-28, 03:32:04,VALID,1001.37,VALID,0,VALID,86.3589,VALID,0,VALID,24.9476,VALID,305,VALID,0.947266,
2009-02-28, 03:33:04,VALID,1001.32,VALID,0,VALID,86.7099,VALID,0.100563,VALID,24.969,VALID,297,VALID,1.4457,
2009-02-28, 03:34:04,VALID,1001.32,VALID,0,VALID,86.8701,VALID,0,VALID,24.9476,VALID,313,VALID,1.60039,
2009-02-28, 03:35:04,VALID,1001.32,VALID,0,VALID,87.3507,VALID,0.100563,VALID,24.9282,VALID,340,VALID,0.951953,
2009-02-28, 03:36:04,VALID,1001.32,VALID,0,VALID,87.7016,VALID,0.100563,VALID,24.9087,VALID,345,VALID,0.842578,
2009-02-28, 03:37:04,VALID,1001.3,VALID,0,VALID,87.8084,VALID,0,VALID,24.8892,VALID,354,VALID,0.420703,
2009-02-28, 03:38:04,VALID,1001.31,VALID,0,VALID,88.0525,VALID,0.100563,VALID,24.8484,VALID,329,VALID,0.505469,
2009-02-28, 03:39:04,VALID,1001.29,VALID,0,VALID,88.228,VALID,0,VALID,24.8716,VALID,263,VALID,0.90625,
2009-02-28, 03:40:04,VALID,1001.28,VALID,0,VALID,88.2509,VALID,0,VALID,24.8113,VALID,277,VALID,0.353125,
2009-02-28, 03:41:04,VALID,1001.28,VALID,0,VALID,88.2509,VALID,0,VALID,24.7937,VALID,326,VALID,0.951953,
2009-02-28, 03:42:04,VALID,1001.22,VALID,0,VALID,88.4569,VALID,0,VALID,24.7548,VALID,345,VALID,0.967969,
2009-02-28, 03:43:04,VALID,1001.24,VALID,0,VALID,88.7849,VALID,0,VALID,24.7159,VALID,344,VALID,0.425391,
2009-02-28, 03:44:04,VALID,1001.24,VALID,0,VALID,89.0977,VALID,0,VALID,24.6556,VALID,309,VALID,0.930469,
2009-02-28, 03:45:04,VALID,1001.23,VALID,0,VALID,89.4334,VALID,0,VALID,24.6361,VALID,336,VALID,0.543359,